Time,TemperatureF,DewpointF,PressureIn,WindDirection,WindDirectionDegrees,WindSpeedMPH,WindSpeedGustMPH,Humidity,HourlyPrecipIn,Conditions,Clouds,dailyrainin,SoftwareType,DateUTC
2013-09-01 00:00:00,75.8,74.6,29.87,NW,320,0.0,0.0,96,0.00,,OVC110,0.00,VWS V14.01,2013-09-01 04:00:00,
2013-09-01 00:05:00,75.9,74.7,29.87,NW,320,0.0,0.0,96,0.00,,CLR,0.00,VWS V14.01,2013-09-01 04:05:00,
2013-09-01 00:10:00,75.8,74.6,29.87,NW,320,0.0,0.0,96,0.00,,CLR,0.00,VWS V14.01,2013-09-01 04:10:00,
2013-09-01 00:15:00,75.8,74.6,29.87,NW,320,0.0,0.0,96,0.00,,CLR,0.00,VWS V14.01,2013-09-01 04:15:00,
2013-09-01 00:21:00,75.7,74.5,29.87,NW,320,0.0,0.0,96,0.00,,CLR,0.00,VWS V14.01,2013-09-01 04:21:00,
2013-09-01 00:26:00,75.8,74.9,29.87,NW,319,0.0,0.0,97,0.00,,CLR,0.00,VWS V14.01,2013-09-01 04:26:00,
2013-09-01 00:30:00,75.8,74.9,29.87,NW,320,0.0,0.0,97,0.00,,,0.00,VWS V14.01,2013-09-01 04:30:00,
2013-09-01 00:31:00,75.8,74.9,29.87,NW,320,0.0,0.0,97,0.00,,CLR,0.00,VWS V14.01,2013-09-01 04:31:00,
2013-09-01 00:36:00,75.8,74.9,29.87,NW,319,0.0,0.0,97,0.00,,CLR,0.00,VWS V14.01,2013-09-01 04:36:00,
2013-09-01 00:41:00,75.8,74.9,29.87,NW,320,0.0,0.0,97,0.00,,CLR,0.00,VWS V14.01,2013-09-01 04:41:00,
2013-09-01 00:45:00,75.7,74.8,29.87,NW,319,0.0,0.0,97,0.00,,,0.00,VWS V14.01,2013-09-01 04:45:00,
2013-09-01 00:46:00,75.7,74.8,29.87,NW,319,0.0,0.0,97,0.00,,CLR,0.00,VWS V14.01,2013-09-01 04:46:00,
2013-09-01 00:51:00,75.7,74.8,29.87,NW,320,0.0,0.0,97,0.00,,CLR,0.00,VWS V14.01,2013-09-01 04:51:00,
2013-09-01 00:56:00,75.6,74.7,29.87,NW,320,0.0,0.0,97,0.00,,CLR,0.00,VWS V14.01,2013-09-01 04:56:00,
2013-09-01 01:00:00,75.6,74.7,29.87,NW,320,0.0,0.0,97,0.00,,,0.00,VWS V14.01,2013-09-01 05:00:00,
2013-09-01 01:01:00,75.6,74.7,29.87,NW,320,0.0,0.0,97,0.00,,CLR,0.00,VWS V14.01,2013-09-01 05:01:00,
2013-09-01 01:06:00,75.5,74.6,29.87,NW,319,0.0,0.0,97,0.00,,CLR,0.00,VWS V14.01,2013-09-01 05:06:00,
2013-09-01 01:11:00,75.5,74.6,29.88,NW,320,0.0,0.0,97,0.00,,CLR,0.00,VWS V14.01,2013-09-01 05:11:00,
2013-09-01 01:15:00,75.5,74.6,29.88,NW,319,0.0,0.0,97,0.00,,,0.00,VWS V14.01,2013-09-01 05:15:00,
2013-09-01 01:16:00,75.5,74.6,29.87,NW,319,0.0,0.0,97,0.00,,CLR,0.00,VWS V14.01,2013-09-01 05:16:00,
2013-09-01 01:21:00,75.5,74.6,29.87,NW,320,0.0,0.0,97,0.00,,CLR,0.00,VWS V14.01,2013-09-01 05:21:00,
2013-09-01 01:26:00,75.4,74.5,29.87,NW,320,0.0,0.0,97,0.00,,CLR,0.00,VWS V14.01,2013-09-01 05:26:00,
2013-09-01 01:30:00,75.3,74.4,29.87,NW,320,0.0,0.0,97,0.00,,CLR,0.00,VWS V14.01,2013-09-01 05:30:00,
2013-09-01 01:31:00,75.3,74.4,29.87,NW,320,0.0,0.0,97,0.00,,CLR,0.00,VWS V14.01,2013-09-01 05:31:00,
2013-09-01 01:36:00,75.3,74.4,29.88,NW,319,0.0,0.0,97,0.00,,CLR,0.00,VWS V14.01,2013-09-01 05:36:00,
2013-09-01 01:41:00,75.2,74.3,29.88,NW,320,0.0,0.0,97,0.00,,CLR,0.00,VWS V14.01,2013-09-01 05:41:00,
2013-09-01 01:45:00,75.2,74.3,29.88,NW,320,0.0,0.0,97,0.00,,,0.00,VWS V14.01,2013-09-01 05:45:00,
2013-09-01 01:46:00,75.2,74.3,29.88,NW,320,0.0,0.0,97,0.00,,CLR,0.00,VWS V14.01,2013-09-01 05:46:00,
2013-09-01 01:51:00,75.2,74.3,29.87,NW,320,0.0,0.0,97,0.00,,CLR,0.00,VWS V14.01,2013-09-01 05:51:00,
2013-09-01 01:56:00,75.0,74.1,29.87,NW,319,0.0,0.0,97,0.00,,CLR,0.00,VWS V14.01,2013-09-01 05:56:00,
2013-09-01 02:00:00,75.0,74.1,29.86,NW,320,0.0,0.0,97,0.00,,,0.00,VWS V14.01,2013-09-01 06:00:00,
2013-09-01 02:01:00,75.0,74.1,29.86,NW,320,0.0,0.0,97,0.00,,,0.00,VWS V14.01,2013-09-01 06:01:00,
2013-09-01 02:06:00,75.0,74.1,29.86,NW,320,0.0,0.0,97,0.00,,,0.00,VWS V14.01,2013-09-01 06:06:00,
2013-09-01 02:11:00,75.0,74.1,29.86,NW,319,0.0,0.0,97,0.00,,,0.00,VWS V14.01,2013-09-01 06:11:00,
2013-09-01 02:15:00,74.9,74.0,29.87,NW,320,0.0,0.0,97,0.00,,,0.00,VWS V14.01,2013-09-01 06:15:00,
2013-09-01 02:16:00,74.8,73.9,29.87,NW,320,0.0,0.0,97,0.00,,,0.00,VWS V14.01,2013-09-01 06:16:00,
2013-09-01 02:21:00,74.8,73.9,29.87,NW,319,0.0,0.0,97,0.00,,,0.00,VWS V14.01,2013-09-01 06:21:00,
2013-09-01 02:26:00,74.6,73.7,29.87,NW,320,0.0,0.0,97,0.00,,,0.00,VWS V14.01,2013-09-01 06:26:00,
2013-09-01 02:30:00,74.6,73.7,29.87,NW,319,0.0,0.0,97,0.00,,,0.00,VWS V14.01,2013-09-01 06:30:00,
2013-09-01 02:31:00,74.6,73.7,29.87,NW,320,0.0,0.0,97,0.00,,,0.00,VWS V14.01,2013-09-01 06:31:00,
2013-09-01 02:36:00,74.7,73.8,29.87,NW,320,0.0,0.0,97,0.00,,,0.00,VWS V14.01,2013-09-01 06:36:00,
2013-09-01 02:41:00,74.7,73.8,29.87,NW,320,0.0,0.0,97,0.00,,,0.00,VWS V14.01,2013-09-01 06:41:00,
2013-09-01 02:45:00,74.8,73.9,29.86,NW,320,0.0,0.0,97,0.00,,,0.00,VWS V14.01,2013-09-01 06:45:00,
2013-09-01 02:46:00,74.8,73.9,29.86,NW,319,0.0,0.0,97,0.00,,,0.00,VWS V14.01,2013-09-01 06:46:00,
2013-09-01 02:52:00,74.7,73.8,29.86,NW,320,0.0,0.0,97,0.00,,,0.00,VWS V14.01,2013-09-01 06:52:00,
2013-09-01 02:57:00,74.6,73.7,29.86,NW,320,0.0,0.0,97,0.00,,,0.00,VWS V14.01,2013-09-01 06:57:00,
2013-09-01 03:00:00,74.4,73.5,29.86,NW,320,0.0,0.0,97,0.00,,,0.00,VWS V14.01,2013-09-01 07:00:00,
2013-09-01 03:02:00,74.4,73.5,29.86,NW,320,0.0,0.0,97,0.00,,,0.00,VWS V14.01,2013-09-01 07:02:00,
2013-09-01 03:07:00,74.3,73.4,29.86,NW,320,0.0,0.0,97,0.00,,,0.00,VWS V14.01,2013-09-01 07:07:00,
2013-09-01 03:12:00,74.2,73.3,29.86,NW,320,0.0,0.0,97,0.00,,,0.00,VWS V14.01,2013-09-01 07:12:00,
2013-09-01 03:15:00,74.3,73.4,29.86,NW,320,0.0,0.0,97,0.00,,,0.00,VWS V14.01,2013-09-01 07:15:00,
2013-09-01 03:17:00,74.2,73.3,29.86,NW,320,0.0,0.0,97,0.00,,,0.00,VWS V14.01,2013-09-01 07:17:00,
2013-09-01 03:22:00,74.2,73.3,29.86,NW,320,0.0,0.0,97,0.00,,,0.00,VWS V14.01,2013-09-01 07:22:00,
2013-09-01 03:27:00,74.1,73.2,29.86,NW,320,0.0,0.0,97,0.00,,,0.00,VWS V14.01,2013-09-01 07:27:00,
2013-09-01 03:30:00,74.0,73.1,29.86,NW,319,0.0,0.0,97,0.00,,,0.00,VWS V14.01,2013-09-01 07:30:00,
2013-09-01 03:32:00,74.0,73.1,29.86,NW,319,0.0,0.0,97,0.00,,,0.00,VWS V14.01,2013-09-01 07:32:00,
2013-09-01 03:37:00,73.9,73.0,29.86,NW,320,0.0,0.0,97,0.00,,,0.00,VWS V14.01,2013-09-01 07:37:00,
2013-09-01 03:42:00,73.9,73.0,29.86,NW,320,0.0,0.0,97,0.00,,,0.00,VWS V14.01,2013-09-01 07:42:00,
2013-09-01 03:45:00,73.9,73.0,29.86,NW,320,0.0,0.0,97,0.00,,,0.00,VWS V14.01,2013-09-01 07:45:00,
2013-09-01 03:47:00,73.9,73.3,29.86,NW,320,0.0,0.0,98,0.00,,,0.00,VWS V14.01,2013-09-01 07:47:00,
2013-09-01 03:52:00,73.9,73.3,29.86,NW,320,0.0,0.0,98,0.00,,,0.00,VWS V14.01,2013-09-01 07:52:00,
2013-09-01 03:57:00,73.9,73.3,29.85,NW,320,0.0,0.0,98,0.00,,,0.00,VWS V14.01,2013-09-01 07:57:00,
2013-09-01 04:00:00,73.9,73.3,29.85,NW,320,0.0,0.0,98,0.00,,,0.00,VWS V14.01,2013-09-01 08:00:00,
2013-09-01 04:02:00,73.9,73.3,29.85,NW,320,0.0,0.0,98,0.00,,,0.00,VWS V14.01,2013-09-01 08:02:00,
2013-09-01 04:07:00,73.9,73.3,29.85,NW,320,0.0,0.0,98,0.00,,,0.00,VWS V14.01,2013-09-01 08:07:00,
2013-09-01 04:12:00,74.0,73.4,29.85,NW,320,0.0,0.0,98,0.00,,,0.00,VWS V14.01,2013-09-01 08:12:00,
2013-09-01 04:15:00,74.0,73.4,29.85,NW,319,0.0,0.0,98,0.00,,,0.00,VWS V14.01,2013-09-01 08:15:00,
2013-09-01 04:17:00,74.0,73.4,29.85,NW,320,0.0,0.0,98,0.00,,,0.00,VWS V14.01,2013-09-01 08:17:00,
2013-09-01 04:22:00,73.9,73.3,29.85,NW,320,0.0,0.0,98,0.00,,,0.00,VWS V14.01,2013-09-01 08:22:00,
2013-09-01 04:27:00,73.9,73.3,29.85,NW,319,0.0,0.0,98,0.00,,,0.00,VWS V14.01,2013-09-01 08:27:00,
2013-09-01 04:30:00,73.9,73.3,29.85,NW,320,0.0,0.0,98,0.00,,,0.00,VWS V14.01,2013-09-01 08:30:00,
2013-09-01 04:32:00,73.9,73.3,29.85,NW,320,0.0,0.0,98,0.00,,,0.00,VWS V14.01,2013-09-01 08:32:00,
2013-09-01 04:37:00,73.9,73.3,29.85,NW,320,0.0,0.0,98,0.00,,,0.00,VWS V14.01,2013-09-01 08:37:00,
2013-09-01 04:42:00,73.8,73.2,29.85,NW,319,0.0,0.0,98,0.00,,,0.00,VWS V14.01,2013-09-01 08:42:00,
2013-09-01 04:45:00,73.7,73.1,29.85,NW,319,0.0,0.0,98,0.00,,,0.00,VWS V14.01,2013-09-01 08:45:00,
2013-09-01 04:47:00,73.7,73.1,29.85,NW,320,0.0,0.0,98,0.00,,,0.00,VWS V14.01,2013-09-01 08:47:00,
2013-09-01 04:52:00,73.5,72.9,29.85,NW,320,0.0,0.0,98,0.00,,,0.00,VWS V14.01,2013-09-01 08:52:00,
2013-09-01 04:57:00,73.6,73.0,29.85,NW,320,0.0,0.0,98,0.00,,,0.00,VWS V14.01,2013-09-01 08:57:00,
2013-09-01 05:00:00,73.6,73.0,29.85,NW,320,0.0,0.0,98,0.00,,,0.00,VWS V14.01,2013-09-01 09:00:00,
2013-09-01 05:02:00,73.6,73.0,29.85,NW,319,0.0,0.0,98,0.00,,,0.00,VWS V14.01,2013-09-01 09:02:00,
2013-09-01 05:07:00,73.5,72.9,29.85,NW,320,0.0,0.0,98,0.00,,,0.00,VWS V14.01,2013-09-01 09:07:00,
2013-09-01 05:12:00,73.4,72.8,29.85,NW,319,0.0,0.0,98,0.00,,,0.00,VWS V14.01,2013-09-01 09:12:00,
2013-09-01 05:15:00,73.5,72.9,29.85,NW,319,0.0,0.0,98,0.00,,,0.00,VWS V14.01,2013-09-01 09:15:00,
2013-09-01 05:17:00,73.5,72.9,29.85,NW,320,0.0,0.0,98,0.00,,,0.00,VWS V14.01,2013-09-01 09:17:00,
2013-09-01 05:22:00,73.7,73.1,29.85,NW,320,0.0,0.0,98,0.00,,,0.00,VWS V14.01,2013-09-01 09:22:00,
2013-09-01 05:27:00,73.9,73.3,29.85,NW,319,0.0,0.0,98,0.00,,,0.00,VWS V14.01,2013-09-01 09:27:00,
2013-09-01 05:30:00,74.0,73.4,29.85,NW,320,0.0,0.0,98,0.00,,,0.00,VWS V14.01,2013-09-01 09:30:00,
2013-09-01 05:32:00,74.1,73.5,29.86,NW,320,0.0,0.0,98,0.00,,,0.00,VWS V14.01,2013-09-01 09:32:00,
2013-09-01 05:37:00,74.4,73.8,29.86,NW,319,0.0,0.0,98,0.00,,,0.00,VWS V14.01,2013-09-01 09:37:00,
2013-09-01 05:42:00,74.7,74.1,29.86,NW,320,0.0,0.0,98,0.00,,,0.00,VWS V14.01,2013-09-01 09:42:00,
2013-09-01 05:45:00,74.8,74.2,29.86,NW,320,0.0,0.0,98,0.00,,,0.00,VWS V14.01,2013-09-01 09:45:00,
2013-09-01 05:48:00,74.8,74.2,29.86,NW,319,0.0,0.0,98,0.00,,,0.00,VWS V14.01,2013-09-01 09:48:00,
2013-09-01 05:53:00,75.0,74.4,29.86,NW,320,0.0,0.0,98,0.00,,,0.00,VWS V14.01,2013-09-01 09:53:00,
2013-09-01 05:58:00,75.1,74.5,29.87,NW,320,0.0,0.0,98,0.00,,,0.00,VWS V14.01,2013-09-01 09:58:00,
2013-09-01 06:00:00,75.1,74.5,29.86,NW,320,0.0,0.0,98,0.00,,,0.00,VWS V14.01,2013-09-01 10:00:00,
2013-09-01 06:03:00,75.1,74.5,29.87,NW,319,0.0,0.0,98,0.00,,,0.00,VWS V14.01,2013-09-01 10:03:00,
2013-09-01 06:08:00,75.1,74.5,29.87,NW,320,0.0,0.0,98,0.00,,,0.00,VWS V14.01,2013-09-01 10:08:00,
2013-09-01 06:13:00,75.2,74.6,29.87,NW,320,0.0,0.0,98,0.00,,,0.00,VWS V14.01,2013-09-01 10:13:00,
2013-09-01 06:15:00,75.2,74.6,29.87,NW,319,0.0,0.0,98,0.00,,,0.00,VWS V14.01,2013-09-01 10:15:00,
2013-09-01 06:18:00,75.1,74.5,29.87,NW,320,0.0,0.0,98,0.00,,,0.00,VWS V14.01,2013-09-01 10:18:00,
2013-09-01 06:23:00,75.1,74.5,29.88,NW,319,0.0,0.0,98,0.00,,,0.00,VWS V14.01,2013-09-01 10:23:00,
2013-09-01 06:28:00,75.0,74.4,29.88,NW,320,0.0,0.0,98,0.00,,,0.00,VWS V14.01,2013-09-01 10:28:00,
2013-09-01 06:30:00,75.0,74.4,29.88,NW,319,0.0,0.0,98,0.00,,,0.00,VWS V14.01,2013-09-01 10:30:00,
2013-09-01 06:33:00,74.9,74.3,29.88,NW,320,0.0,0.0,98,0.00,,,0.00,VWS V14.01,2013-09-01 10:33:00,
2013-09-01 06:38:00,74.8,74.2,29.88,NW,319,0.0,0.0,98,0.00,,,0.00,VWS V14.01,2013-09-01 10:38:00,
2013-09-01 06:43:00,74.8,74.2,29.88,NW,320,0.0,0.0,98,0.00,,,0.00,VWS V14.01,2013-09-01 10:43:00,
2013-09-01 06:45:00,74.7,74.1,29.88,NW,320,0.0,0.0,98,0.00,,,0.00,VWS V14.01,2013-09-01 10:45:00,
2013-09-01 06:48:00,74.6,74.0,29.88,NW,319,0.0,0.0,98,0.00,,,0.00,VWS V14.01,2013-09-01 10:48:00,
2013-09-01 06:53:00,74.5,73.9,29.87,NW,320,0.0,0.0,98,0.00,,,0.00,VWS V14.01,2013-09-01 10:53:00,
2013-09-01 06:58:00,74.4,73.8,29.87,NW,320,0.0,0.0,98,0.00,,,0.00,VWS V14.01,2013-09-01 10:58:00,
2013-09-01 07:00:00,74.4,73.8,29.87,NW,320,0.0,0.0,98,0.00,,,0.00,VWS V14.01,2013-09-01 11:00:00,
2013-09-01 07:03:00,74.4,73.8,29.87,NW,320,0.0,0.0,98,0.00,,,0.00,VWS V14.01,2013-09-01 11:03:00,
2013-09-01 07:08:00,74.3,73.7,29.87,NW,320,0.0,0.0,98,0.00,,,0.00,VWS V14.01,2013-09-01 11:08:00,
2013-09-01 07:13:00,74.1,73.5,29.87,NW,320,0.0,0.0,98,0.00,,,0.00,VWS V14.01,2013-09-01 11:13:00,
2013-09-01 07:15:00,74.0,73.4,29.87,NW,320,0.0,0.0,98,0.00,,,0.00,VWS V14.01,2013-09-01 11:15:00,
2013-09-01 07:18:00,74.0,73.4,29.87,NW,320,0.0,0.0,98,0.00,,,0.00,VWS V14.01,2013-09-01 11:18:00,
2013-09-01 07:23:00,73.8,73.2,29.87,NW,319,0.0,0.0,98,0.00,,,0.00,VWS V14.01,2013-09-01 11:23:00,
2013-09-01 07:28:00,73.7,73.1,29.87,NW,320,0.0,0.0,98,0.00,,,0.00,VWS V14.01,2013-09-01 11:28:00,
2013-09-01 07:30:00,73.7,73.1,29.87,NW,319,0.0,0.0,98,0.00,,,0.00,VWS V14.01,2013-09-01 11:30:00,
2013-09-01 07:33:00,73.7,73.1,29.87,NW,320,0.0,0.0,98,0.00,,,0.00,VWS V14.01,2013-09-01 11:33:00,
2013-09-01 07:38:00,73.8,73.2,29.87,NW,319,0.0,0.0,98,0.00,,,0.00,VWS V14.01,2013-09-01 11:38:00,
2013-09-01 07:43:00,74.0,73.4,29.87,NW,320,0.0,0.0,98,0.00,,,0.00,VWS V14.01,2013-09-01 11:43:00,
2013-09-01 07:45:00,74.0,73.4,29.87,NW,320,0.0,0.0,98,0.00,,,0.00,VWS V14.01,2013-09-01 11:45:00,
2013-09-01 07:48:00,74.1,73.5,29.88,NW,319,0.0,0.0,98,0.00,,,0.00,VWS V14.01,2013-09-01 11:48:00,
2013-09-01 07:53:00,74.2,73.6,29.87,NW,319,0.0,0.0,98,0.00,,,0.00,VWS V14.01,2013-09-01 11:53:00,
2013-09-01 07:58:00,74.4,73.8,29.88,NW,320,0.0,0.0,98,0.00,,,0.00,VWS V14.01,2013-09-01 11:58:00,
2013-09-01 08:00:00,74.4,73.8,29.88,NW,320,0.0,0.0,98,0.00,,,0.00,VWS V14.01,2013-09-01 12:00:00,
2013-09-01 08:03:00,74.6,74.0,29.88,NW,320,0.0,0.0,98,0.00,,,0.00,VWS V14.01,2013-09-01 12:03:00,
2013-09-01 08:08:00,74.7,74.1,29.88,NW,320,0.0,0.0,98,0.00,,,0.00,VWS V14.01,2013-09-01 12:08:00,
2013-09-01 08:13:00,74.9,74.3,29.88,NW,320,0.0,0.0,98,0.00,,,0.00,VWS V14.01,2013-09-01 12:13:00,
2013-09-01 08:15:00,75.0,74.4,29.88,NW,320,0.0,0.0,98,0.00,,,0.00,VWS V14.01,2013-09-01 12:15:00,
2013-09-01 08:18:00,75.1,74.8,29.88,NW,319,0.0,0.0,99,0.00,,,0.00,VWS V14.01,2013-09-01 12:18:00,
2013-09-01 08:23:00,75.3,75.0,29.88,NW,320,0.0,0.0,99,0.00,,,0.00,VWS V14.01,2013-09-01 12:23:00,
2013-09-01 08:28:00,75.4,74.8,29.88,NW,320,0.0,0.0,98,0.00,,,0.00,VWS V14.01,2013-09-01 12:28:00,
2013-09-01 08:30:00,75.4,74.8,29.88,NW,320,0.0,0.0,98,0.00,,,0.00,VWS V14.01,2013-09-01 12:30:00,
2013-09-01 08:33:00,75.5,74.9,29.89,WSW,254,0.0,0.0,98,0.00,,,0.00,VWS V14.01,2013-09-01 12:33:00,
2013-09-01 08:38:00,75.6,75.0,29.89,NNW,346,0.0,2.0,98,0.00,,,0.00,VWS V14.01,2013-09-01 12:38:00,
2013-09-01 08:44:00,75.8,75.5,29.89,NNW,346,0.0,2.0,99,0.00,,,0.00,VWS V14.01,2013-09-01 12:44:00,
2013-09-01 08:45:00,75.8,75.5,29.89,NNW,346,0.0,2.0,99,0.00,,,0.00,VWS V14.01,2013-09-01 12:45:00,
2013-09-01 08:49:00,75.8,75.5,29.89,NNW,346,0.0,0.0,99,0.00,,,0.00,VWS V14.01,2013-09-01 12:49:00,
2013-09-01 08:54:00,75.9,75.6,29.89,NNW,346,0.0,0.0,99,0.00,,,0.00,VWS V14.01,2013-09-01 12:54:00,
2013-09-01 08:59:00,76.0,75.4,29.89,NNW,346,0.0,0.0,98,0.00,,,0.00,VWS V14.01,2013-09-01 12:59:00,
2013-09-01 09:00:00,76.0,75.4,29.89,NNW,346,0.0,0.0,98,0.00,,,0.00,VWS V14.01,2013-09-01 13:00:00,
2013-09-01 09:04:00,76.1,75.5,29.90,NNW,346,0.0,0.0,98,0.00,,,0.00,VWS V14.01,2013-09-01 13:04:00,
2013-09-01 09:09:00,76.1,75.5,29.89,NNW,346,0.0,0.0,98,0.00,,,0.00,VWS V14.01,2013-09-01 13:09:00,
2013-09-01 09:14:00,76.1,75.5,29.90,NNW,346,0.0,0.0,98,0.00,,,0.00,VWS V14.01,2013-09-01 13:14:00,
2013-09-01 09:15:00,76.1,75.5,29.90,SE,132,0.0,1.0,98,0.00,,,0.00,VWS V14.01,2013-09-01 13:15:00,
2013-09-01 09:19:00,76.3,75.7,29.90,SE,132,0.0,0.0,98,0.00,,,0.00,VWS V14.01,2013-09-01 13:19:00,
2013-09-01 09:24:00,76.5,75.9,29.90,ESE,122,0.0,4.0,98,0.00,,,0.00,VWS V14.01,2013-09-01 13:24:00,
2013-09-01 09:29:00,76.7,75.8,29.90,ESE,122,0.0,4.0,97,0.00,,,0.00,VWS V14.01,2013-09-01 13:29:00,
2013-09-01 09:30:00,76.8,75.9,29.90,ESE,122,0.0,4.0,97,0.00,,,0.00,VWS V14.01,2013-09-01 13:30:00,
2013-09-01 09:34:00,77.1,76.2,29.90,South,173,0.0,0.0,97,0.00,,,0.00,VWS V14.01,2013-09-01 13:34:00,
2013-09-01 09:39:00,77.5,76.6,29.90,ESE,103,0.0,0.0,97,0.00,,,0.00,VWS V14.01,2013-09-01 13:39:00,
2013-09-01 09:44:00,78.0,76.8,29.90,ESE,103,0.0,0.0,96,0.00,,,0.00,VWS V14.01,2013-09-01 13:44:00,
2013-09-01 09:45:00,78.2,77.0,29.90,ESE,103,0.0,0.0,96,0.00,,,0.00,VWS V14.01,2013-09-01 13:45:00,
2013-09-01 09:49:00,78.6,77.4,29.90,ESE,103,0.0,0.0,96,0.00,,,0.00,VWS V14.01,2013-09-01 13:49:00,
2013-09-01 09:54:00,79.1,77.2,29.90,ESE,102,0.0,0.0,94,0.00,,,0.00,VWS V14.01,2013-09-01 13:54:00,
2013-09-01 09:59:00,79.8,77.6,29.90,ESE,103,0.0,0.0,93,0.00,,,0.00,VWS V14.01,2013-09-01 13:59:00,
2013-09-01 10:00:00,80.0,77.8,29.90,ESE,103,0.0,0.0,93,0.00,,,0.00,VWS V14.01,2013-09-01 14:00:00,
2013-09-01 10:04:00,80.6,78.1,29.90,ESE,102,0.0,0.0,92,0.00,,CLR,0.00,VWS V14.01,2013-09-01 14:04:00,
2013-09-01 10:09:00,81.2,78.0,29.90,ESE,103,0.0,0.0,90,0.00,,CLR,0.00,VWS V14.01,2013-09-01 14:09:00,
2013-09-01 10:14:00,81.9,78.7,29.90,ESE,102,0.0,0.0,90,0.00,,CLR,0.00,VWS V14.01,2013-09-01 14:14:00,
2013-09-01 10:15:00,82.0,78.4,29.90,ESE,103,0.0,0.0,89,0.00,,,0.00,VWS V14.01,2013-09-01 14:15:00,
2013-09-01 10:19:00,82.3,78.4,29.90,ESE,103,0.0,0.0,88,0.00,,CLR,0.00,VWS V14.01,2013-09-01 14:19:00,
2013-09-01 10:24:00,82.8,78.2,29.90,ESE,103,1.0,1.0,86,0.00,,CLR,0.00,VWS V14.01,2013-09-01 14:24:00,
2013-09-01 10:29:00,83.2,78.2,29.90,ESE,110,1.0,1.0,85,0.00,,CLR,0.00,VWS V14.01,2013-09-01 14:29:00,
2013-09-01 10:30:00,83.1,77.8,29.90,East,80,0.0,2.0,84,0.00,,,0.00,VWS V14.01,2013-09-01 14:30:00,
2013-09-01 10:34:00,83.4,78.4,29.90,East,81,0.0,0.0,85,0.00,,CLR,0.00,VWS V14.01,2013-09-01 14:34:00,
2013-09-01 10:39:00,83.9,78.9,29.90,East,81,0.0,0.0,85,0.00,,CLR,0.00,VWS V14.01,2013-09-01 14:39:00,
2013-09-01 10:44:00,84.4,78.7,29.90,ENE,78,0.0,0.0,83,0.00,,CLR,0.00,VWS V14.01,2013-09-01 14:44:00,
2013-09-01 10:45:00,84.5,78.8,29.90,ENE,78,0.0,0.0,83,0.00,,,0.00,VWS V14.01,2013-09-01 14:45:00,
2013-09-01 10:49:00,84.7,79.0,29.90,ENE,78,0.0,0.0,83,0.00,,CLR,0.00,VWS V14.01,2013-09-01 14:49:00,
2013-09-01 10:54:00,85.0,79.3,29.90,ENE,78,0.0,0.0,83,0.00,,CLR,0.00,VWS V14.01,2013-09-01 14:54:00,
2013-09-01 10:59:00,85.3,79.2,29.90,ENE,78,0.0,0.0,82,0.00,,CLR,0.00,VWS V14.01,2013-09-01 14:59:00,
2013-09-01 11:00:00,85.4,79.3,29.90,ENE,78,0.0,0.0,82,0.00,,,0.00,VWS V14.01,2013-09-01 15:00:00,
2013-09-01 11:04:00,85.6,79.5,29.90,ENE,78,0.0,0.0,82,0.00,,CLR,0.00,VWS V14.01,2013-09-01 15:04:00,
2013-09-01 11:09:00,85.8,78.9,29.89,ENE,78,0.0,0.0,80,0.00,,CLR,0.00,VWS V14.01,2013-09-01 15:09:00,
2013-09-01 11:14:00,86.1,79.2,29.90,South,169,0.0,2.0,80,0.00,,CLR,0.00,VWS V14.01,2013-09-01 15:14:00,
2013-09-01 11:15:00,86.1,79.2,29.90,WNW,284,2.0,2.0,80,0.00,,,0.00,VWS V14.01,2013-09-01 15:15:00,
2013-09-01 11:19:00,86.0,79.1,29.89,WNW,284,0.0,2.0,80,0.00,,CLR,0.00,VWS V14.01,2013-09-01 15:19:00,
2013-09-01 11:24:00,85.9,78.6,29.89,WNW,284,0.0,2.0,79,0.00,,CLR,0.00,VWS V14.01,2013-09-01 15:24:00,
2013-09-01 11:29:00,85.8,78.9,29.89,WNW,285,0.0,2.0,80,0.00,,CLR,0.00,VWS V14.01,2013-09-01 15:29:00,
2013-09-01 11:30:00,85.8,78.5,29.89,North,360,0.0,2.0,79,0.00,,,0.00,VWS V14.01,2013-09-01 15:30:00,
2013-09-01 11:34:00,85.9,79.0,29.89,North,360,0.0,0.0,80,0.00,,CLR,0.00,VWS V14.01,2013-09-01 15:34:00,
2013-09-01 11:40:00,86.2,78.9,29.89,NNE,23,0.0,1.0,79,0.00,,CLR,0.00,VWS V14.01,2013-09-01 15:40:00,
2013-09-01 11:45:00,86.3,78.2,29.89,East,81,0.0,1.0,77,0.00,,CLR,0.00,VWS V14.01,2013-09-01 15:45:00,
2013-09-01 11:50:00,86.2,78.5,29.89,East,80,0.0,0.0,78,0.00,,CLR,0.00,VWS V14.01,2013-09-01 15:50:00,
2013-09-01 11:55:00,86.1,78.1,29.89,WNW,293,0.0,5.0,77,0.00,,CLR,0.00,VWS V14.01,2013-09-01 15:55:00,
2013-09-01 12:00:00,86.1,78.8,29.89,WNW,293,0.0,5.0,79,0.00,,CLR,0.00,VWS V14.01,2013-09-01 16:00:00,
2013-09-01 12:15:00,86.8,78.3,29.89,WNW,296,0.0,0.0,76,0.00,,,0.00,VWS V14.01,2013-09-01 16:15:00,
2013-09-01 12:30:00,87.2,77.9,29.88,SW,230,5.0,5.0,74,0.00,,CLR,0.00,VWS V14.01,2013-09-01 16:30:00,
2013-09-01 12:36:00,87.3,78.4,29.88,ENE,65,0.0,5.0,75,0.00,,CLR,0.00,VWS V14.01,2013-09-01 16:36:00,
2013-09-01 12:41:00,87.7,79.2,29.87,ENE,65,0.0,5.0,76,0.00,,CLR,0.00,VWS V14.01,2013-09-01 16:41:00,
2013-09-01 12:45:00,87.9,78.2,29.87,ENE,65,0.0,5.0,73,0.00,,,0.00,VWS V14.01,2013-09-01 16:45:00,
2013-09-01 12:46:00,87.9,78.2,29.87,ENE,65,0.0,0.0,73,0.00,,CLR,0.00,VWS V14.01,2013-09-01 16:46:00,
2013-09-01 12:51:00,88.0,77.8,29.87,ENE,65,0.0,1.0,72,0.00,,CLR,0.00,VWS V14.01,2013-09-01 16:51:00,
2013-09-01 12:56:00,88.0,78.3,29.86,ENE,65,0.0,1.0,73,0.00,,CLR,0.00,VWS V14.01,2013-09-01 16:56:00,
2013-09-01 13:00:00,88.1,77.9,29.86,ENE,65,0.0,1.0,72,0.00,,,0.00,VWS V14.01,2013-09-01 17:00:00,
2013-09-01 13:01:00,88.1,77.5,29.86,ENE,65,0.0,0.0,71,0.00,,SCT049,0.00,VWS V14.01,2013-09-01 17:01:00,
2013-09-01 13:06:00,88.2,77.2,29.86,ENE,65,0.0,0.0,70,0.00,,SCT049,0.00,VWS V14.01,2013-09-01 17:06:00,
2013-09-01 13:11:00,88.4,77.4,29.86,North,9,0.0,1.0,70,0.00,,SCT049,0.00,VWS V14.01,2013-09-01 17:11:00,
2013-09-01 13:15:00,88.7,78.1,29.86,SW,217,0.0,3.0,71,0.00,,,0.00,VWS V14.01,2013-09-01 17:15:00,
2013-09-01 13:16:00,88.8,78.2,29.86,SW,217,0.0,0.0,71,0.00,,SCT049,0.00,VWS V14.01,2013-09-01 17:16:00,
2013-09-01 13:21:00,89.1,78.0,29.86,SW,234,0.0,1.0,70,0.00,,SCT049,0.00,VWS V14.01,2013-09-01 17:21:00,
2013-09-01 13:26:00,89.4,78.3,29.86,East,90,0.0,1.0,70,0.00,,SCT049,0.00,VWS V14.01,2013-09-01 17:26:00,
2013-09-01 13:30:00,89.7,77.7,29.86,NNW,343,0.0,1.0,68,0.00,,,0.00,VWS V14.01,2013-09-01 17:30:00,
2013-09-01 13:31:00,89.7,77.7,29.86,NNW,343,0.0,0.0,68,0.00,,SCT049,0.00,VWS V14.01,2013-09-01 17:31:00,
2013-09-01 13:36:00,90.0,78.9,29.85,NNW,342,0.0,0.0,70,0.00,,SCT049,0.00,VWS V14.01,2013-09-01 17:36:00,
2013-09-01 13:41:00,90.5,78.5,29.85,East,81,0.0,1.0,68,0.00,,SCT049,0.00,VWS V14.01,2013-09-01 17:41:00,
2013-09-01 13:45:00,90.3,77.4,29.85,East,82,0.0,1.0,66,0.00,,,0.00,VWS V14.01,2013-09-01 17:45:00,
2013-09-01 13:46:00,90.2,76.8,29.85,SSE,157,0.0,1.0,65,0.00,,SCT049,0.00,VWS V14.01,2013-09-01 17:46:00,
2013-09-01 13:51:00,90.6,77.7,29.85,SSE,157,0.0,1.0,66,0.00,,SCT049,0.00,VWS V14.01,2013-09-01 17:51:00,
2013-09-01 13:56:00,90.9,78.0,29.85,SE,145,0.0,1.0,66,0.00,,SCT049,0.00,VWS V14.01,2013-09-01 17:56:00,
2013-09-01 14:00:00,91.2,77.8,29.84,North,355,0.0,2.0,65,0.00,,,0.00,VWS V14.01,2013-09-01 18:00:00,
2013-09-01 14:01:00,91.2,77.3,29.84,North,355,0.0,0.0,64,0.00,,CLR,0.00,VWS V14.01,2013-09-01 18:01:00,
2013-09-01 14:06:00,91.5,78.1,29.84,North,11,0.0,1.0,65,0.00,,CLR,0.00,VWS V14.01,2013-09-01 18:06:00,
2013-09-01 14:11:00,91.8,77.9,29.84,West,259,0.0,1.0,64,0.00,,CLR,0.00,VWS V14.01,2013-09-01 18:11:00,
2013-09-01 14:15:00,91.6,79.1,29.84,West,259,0.0,1.0,67,0.00,,,0.00,VWS V14.01,2013-09-01 18:15:00,
2013-09-01 14:16:00,91.6,78.2,29.84,West,259,0.0,0.0,65,0.00,,CLR,0.00,VWS V14.01,2013-09-01 18:16:00,
2013-09-01 14:22:00,91.4,77.0,29.83,West,259,0.0,0.0,63,0.00,,CLR,0.00,VWS V14.01,2013-09-01 18:22:00,
2013-09-01 14:27:00,91.4,78.0,29.83,West,259,0.0,1.0,65,0.00,,CLR,0.00,VWS V14.01,2013-09-01 18:27:00,
2013-09-01 14:30:00,91.6,77.7,29.83,West,259,0.0,1.0,64,0.00,,,0.00,VWS V14.01,2013-09-01 18:30:00,
2013-09-01 14:32:00,91.8,77.9,29.83,West,259,1.0,1.0,64,0.00,,CLR,0.00,VWS V14.01,2013-09-01 18:32:00,
2013-09-01 14:42:00,92.4,78.5,29.83,West,275,0.0,1.0,64,0.00,,CLR,0.00,VWS V14.01,2013-09-01 18:42:00,
2013-09-01 14:45:00,92.6,77.2,29.83,West,260,0.0,1.0,61,0.00,,,0.00,VWS V14.01,2013-09-01 18:45:00,
2013-09-01 14:47:00,92.6,78.2,29.82,West,261,0.0,1.0,63,0.00,,CLR,0.00,VWS V14.01,2013-09-01 18:47:00,
2013-09-01 14:52:00,92.8,77.4,29.82,West,263,0.0,1.0,61,0.00,,CLR,0.00,VWS V14.01,2013-09-01 18:52:00,
2013-09-01 14:57:00,92.8,77.4,29.82,West,263,0.0,1.0,61,0.00,,CLR,0.00,VWS V14.01,2013-09-01 18:57:00,
2013-09-01 15:00:00,92.4,78.0,29.82,West,263,0.0,1.0,63,0.00,,,0.00,VWS V14.01,2013-09-01 19:00:00,
2013-09-01 15:02:00,92.3,77.9,29.82,West,263,0.0,0.0,63,0.00,,FEW045,0.00,VWS V14.01,2013-09-01 19:02:00,
2013-09-01 15:07:00,92.1,77.7,29.82,West,263,0.0,0.0,63,0.00,,FEW045,0.00,VWS V14.01,2013-09-01 19:07:00,
2013-09-01 15:12:00,91.7,77.8,29.81,West,263,0.0,0.0,64,0.00,,FEW045,0.00,VWS V14.01,2013-09-01 19:12:00,
2013-09-01 15:15:00,91.7,78.3,29.81,NE,40,0.0,1.0,65,0.00,,,0.00,VWS V14.01,2013-09-01 19:15:00,
2013-09-01 15:17:00,91.8,78.4,29.81,NE,40,0.0,0.0,65,0.00,,FEW045,0.00,VWS V14.01,2013-09-01 19:17:00,
2013-09-01 15:22:00,92.2,78.3,29.81,NE,40,0.0,0.0,64,0.00,,FEW045,0.00,VWS V14.01,2013-09-01 19:22:00,
2013-09-01 15:27:00,92.4,78.9,29.81,NE,40,0.0,0.0,65,0.00,,FEW045,0.00,VWS V14.01,2013-09-01 19:27:00,
2013-09-01 15:30:00,92.7,78.7,29.81,NE,40,0.0,0.0,64,0.00,,,0.00,VWS V14.01,2013-09-01 19:30:00,
2013-09-01 15:32:00,92.8,76.9,29.81,NE,40,0.0,1.0,60,0.00,,FEW045,0.00,VWS V14.01,2013-09-01 19:32:00,
2013-09-01 15:37:00,93.1,78.2,29.81,North,9,0.0,1.0,62,0.00,,FEW045,0.00,VWS V14.01,2013-09-01 19:37:00,
2013-09-01 15:42:00,93.2,77.8,29.80,North,5,0.0,1.0,61,0.00,,FEW045,0.00,VWS V14.01,2013-09-01 19:42:00,
2013-09-01 15:45:00,93.2,77.8,29.80,North,5,0.0,1.0,61,0.00,,,0.00,VWS V14.01,2013-09-01 19:45:00,
2013-09-01 15:47:00,93.3,77.3,29.80,North,5,0.0,1.0,60,0.00,,FEW045,0.00,VWS V14.01,2013-09-01 19:47:00,
2013-09-01 15:52:00,93.4,77.9,29.80,North,5,0.0,1.0,61,0.00,,FEW045,0.00,VWS V14.01,2013-09-01 19:52:00,
2013-09-01 15:57:00,93.6,78.6,29.80,North,5,0.0,1.0,62,0.00,,FEW045,0.00,VWS V14.01,2013-09-01 19:57:00,
2013-09-01 16:00:00,93.7,77.7,29.80,North,5,0.0,1.0,60,0.00,,,0.00,VWS V14.01,2013-09-01 20:00:00,
2013-09-01 16:02:00,93.6,78.6,29.80,North,5,0.0,0.0,62,0.00,,SCT060,0.00,VWS V14.01,2013-09-01 20:02:00,
2013-09-01 16:07:00,93.5,77.0,29.80,North,5,0.0,0.0,59,0.00,,SCT060,0.00,VWS V14.01,2013-09-01 20:07:00,
2013-09-01 16:12:00,93.4,77.4,29.80,North,5,0.0,0.0,60,0.00,,SCT060,0.00,VWS V14.01,2013-09-01 20:12:00,
2013-09-01 16:15:00,93.4,77.4,29.80,North,5,0.0,1.0,60,0.00,,,0.00,VWS V14.01,2013-09-01 20:15:00,
2013-09-01 16:17:00,93.4,77.9,29.80,North,5,0.0,0.0,61,0.00,,SCT060,0.00,VWS V14.01,2013-09-01 20:17:00,
2013-09-01 16:22:00,93.5,77.0,29.80,North,5,0.0,1.0,59,0.00,,SCT060,0.00,VWS V14.01,2013-09-01 20:22:00,
2013-09-01 16:27:00,93.7,76.7,29.79,North,5,0.0,1.0,58,0.00,,SCT060,0.00,VWS V14.01,2013-09-01 20:27:00,
2013-09-01 16:30:00,93.6,78.6,29.79,North,5,0.0,1.0,62,0.00,,,0.00,VWS V14.01,2013-09-01 20:30:00,
2013-09-01 16:33:00,93.5,77.5,29.79,North,5,0.0,0.0,60,0.00,,SCT060,0.00,VWS V14.01,2013-09-01 20:33:00,
2013-09-01 16:38:00,93.0,76.6,29.79,NE,40,0.0,2.0,59,0.00,,SCT060,0.00,VWS V14.01,2013-09-01 20:38:00,
2013-09-01 16:43:00,92.8,76.9,29.79,WSW,245,0.0,2.0,60,0.00,,SCT060,0.00,VWS V14.01,2013-09-01 20:43:00,
2013-09-01 16:45:00,92.5,76.6,29.79,North,9,0.0,2.0,60,0.00,,,0.00,VWS V14.01,2013-09-01 20:45:00,
2013-09-01 16:48:00,92.3,77.4,29.79,North,9,0.0,0.0,62,0.00,,SCT060,0.00,VWS V14.01,2013-09-01 20:48:00,
2013-09-01 16:53:00,91.8,77.4,29.79,North,9,0.0,0.0,63,0.00,,SCT060,0.00,VWS V14.01,2013-09-01 20:53:00,
2013-09-01 16:58:00,91.5,77.6,29.79,North,9,0.0,0.0,64,0.00,,SCT060,0.00,VWS V14.01,2013-09-01 20:58:00,
2013-09-01 17:00:00,91.5,77.6,29.78,North,9,0.0,0.0,64,0.00,,,0.00,VWS V14.01,2013-09-01 21:00:00,
2013-09-01 17:03:00,91.4,77.5,29.78,North,9,0.0,0.0,64,0.00,,FEW045,0.00,VWS V14.01,2013-09-01 21:03:00,
2013-09-01 17:08:00,91.1,78.2,29.79,North,9,0.0,0.0,66,0.00,,FEW045,0.00,VWS V14.01,2013-09-01 21:08:00,
2013-09-01 17:13:00,90.6,77.2,29.78,NE,44,0.0,0.0,65,0.00,,FEW045,0.00,VWS V14.01,2013-09-01 21:13:00,
2013-09-01 17:15:00,90.2,76.8,29.78,NE,44,0.0,0.0,65,0.00,,,0.00,VWS V14.01,2013-09-01 21:15:00,
2013-09-01 17:18:00,90.0,77.6,29.78,NE,44,0.0,0.0,67,0.00,,FEW045,0.00,VWS V14.01,2013-09-01 21:18:00,
2013-09-01 17:23:00,89.7,77.7,29.78,NE,44,0.0,0.0,68,0.00,,FEW045,0.00,VWS V14.01,2013-09-01 21:23:00,
2013-09-01 17:28:00,89.8,78.3,29.78,NE,44,0.0,0.0,69,0.00,,FEW045,0.00,VWS V14.01,2013-09-01 21:28:00,
2013-09-01 17:30:00,89.8,78.3,29.78,NE,44,0.0,0.0,69,0.00,,,0.00,VWS V14.01,2013-09-01 21:30:00,
2013-09-01 17:33:00,89.7,78.2,29.78,NE,44,0.0,0.0,69,0.00,,FEW045,0.00,VWS V14.01,2013-09-01 21:33:00,
2013-09-01 17:38:00,89.5,78.0,29.78,NE,44,0.0,0.0,69,0.00,,FEW045,0.00,VWS V14.01,2013-09-01 21:38:00,
2013-09-01 17:43:00,89.1,78.0,29.78,NE,44,0.0,0.0,70,0.00,,FEW045,0.00,VWS V14.01,2013-09-01 21:43:00,
2013-09-01 17:45:00,89.0,77.9,29.78,NE,44,0.0,0.0,70,0.00,,,0.00,VWS V14.01,2013-09-01 21:45:00,
2013-09-01 17:48:00,88.8,77.8,29.78,NE,44,0.0,0.0,70,0.00,,FEW045,0.00,VWS V14.01,2013-09-01 21:48:00,
2013-09-01 17:53:00,88.5,78.3,29.78,NE,44,0.0,0.0,72,0.00,,FEW045,0.00,VWS V14.01,2013-09-01 21:53:00,
2013-09-01 17:58:00,88.2,78.4,29.78,NE,44,0.0,0.0,73,0.00,,FEW045,0.00,VWS V14.01,2013-09-01 21:58:00,
2013-09-01 18:00:00,88.0,78.7,29.78,NE,44,0.0,0.0,74,0.00,,,0.00,VWS V14.01,2013-09-01 22:00:00,
2013-09-01 18:03:00,87.9,78.6,29.78,NE,44,0.0,0.0,74,0.00,,CLR,0.00,VWS V14.01,2013-09-01 22:03:00,
2013-09-01 18:08:00,87.7,78.0,29.77,NE,44,0.0,0.0,73,0.00,,CLR,0.00,VWS V14.01,2013-09-01 22:08:00,
2013-09-01 18:13:00,87.5,77.8,29.78,NE,44,0.0,0.0,73,0.00,,CLR,0.00,VWS V14.01,2013-09-01 22:13:00,
2013-09-01 18:15:00,87.4,77.7,29.78,NE,44,0.0,0.0,73,0.00,,,0.00,VWS V14.01,2013-09-01 22:15:00,
2013-09-01 18:18:00,87.3,78.0,29.78,NE,44,0.0,0.0,74,0.00,,CLR,0.00,VWS V14.01,2013-09-01 22:18:00,
2013-09-01 18:23:00,87.1,78.2,29.77,NE,44,0.0,0.0,75,0.00,,CLR,0.00,VWS V14.01,2013-09-01 22:23:00,
2013-09-01 18:28:00,87.0,78.5,29.77,NE,44,0.0,0.0,76,0.00,,CLR,0.00,VWS V14.01,2013-09-01 22:28:00,
2013-09-01 18:30:00,86.8,78.3,29.78,NE,44,0.0,0.0,76,0.00,,,0.00,VWS V14.01,2013-09-01 22:30:00,
2013-09-01 18:33:00,86.6,78.5,29.78,NE,44,0.0,0.0,77,0.00,,CLR,0.00,VWS V14.01,2013-09-01 22:33:00,
2013-09-01 18:38:00,86.3,78.2,29.78,NE,44,0.0,0.0,77,0.00,,CLR,0.00,VWS V14.01,2013-09-01 22:38:00,
2013-09-01 18:43:00,86.1,78.1,29.78,NE,44,0.0,0.0,77,0.00,,CLR,0.00,VWS V14.01,2013-09-01 22:43:00,
2013-09-01 18:45:00,86.0,77.9,29.78,NE,44,0.0,0.0,77,0.00,,,0.00,VWS V14.01,2013-09-01 22:45:00,
2013-09-01 18:48:00,85.8,77.8,29.79,NE,44,0.0,0.0,77,0.00,,CLR,0.00,VWS V14.01,2013-09-01 22:48:00,
2013-09-01 18:53:00,85.5,78.2,29.79,NE,44,0.0,0.0,79,0.00,,CLR,0.00,VWS V14.01,2013-09-01 22:53:00,
2013-09-01 18:59:00,85.2,77.9,29.79,NE,44,0.0,0.0,79,0.00,,CLR,0.00,VWS V14.01,2013-09-01 22:59:00,
2013-09-01 19:00:00,85.2,78.3,29.79,NE,44,0.0,0.0,80,0.00,,,0.00,VWS V14.01,2013-09-01 23:00:00,
2013-09-01 19:04:00,85.0,78.1,29.79,NE,44,0.0,0.0,80,0.00,,BKN075,0.00,VWS V14.01,2013-09-01 23:04:00,
2013-09-01 19:09:00,84.8,78.7,29.79,NE,44,0.0,0.0,82,0.00,,BKN075,0.00,VWS V14.01,2013-09-01 23:09:00,
2013-09-01 19:14:00,84.6,78.1,29.79,NE,44,0.0,0.0,81,0.00,,BKN075,0.00,VWS V14.01,2013-09-01 23:14:00,
2013-09-01 19:15:00,84.5,78.0,29.79,NE,44,0.0,0.0,81,0.00,,,0.00,VWS V14.01,2013-09-01 23:15:00,
2013-09-01 19:24:00,84.0,77.5,29.79,NE,44,0.0,0.0,81,0.00,,BKN075,0.00,VWS V14.01,2013-09-01 23:24:00,
2013-09-01 19:29:00,83.7,77.6,29.79,NE,44,0.0,0.0,82,0.00,,BKN075,0.00,VWS V14.01,2013-09-01 23:29:00,
2013-09-01 19:30:00,83.6,77.5,29.79,NE,44,0.0,0.0,82,0.00,,,0.00,VWS V14.01,2013-09-01 23:30:00,
2013-09-01 19:34:00,83.5,77.4,29.79,NE,44,0.0,0.0,82,0.00,,BKN075,0.00,VWS V14.01,2013-09-01 23:34:00,
2013-09-01 19:39:00,83.2,77.5,29.80,NE,44,0.0,0.0,83,0.00,,BKN075,0.00,VWS V14.01,2013-09-01 23:39:00,
2013-09-01 19:44:00,82.9,77.2,29.80,NE,44,0.0,0.0,83,0.00,,BKN075,0.00,VWS V14.01,2013-09-01 23:44:00,
2013-09-01 19:45:00,82.8,77.1,29.80,NE,44,0.0,0.0,83,0.00,,,0.00,VWS V14.01,2013-09-01 23:45:00,
2013-09-01 19:49:00,82.5,77.2,29.80,NE,44,0.0,0.0,84,0.00,,BKN075,0.00,VWS V14.01,2013-09-01 23:49:00,
2013-09-01 19:54:00,82.1,76.8,29.80,NE,44,0.0,0.0,84,0.00,,BKN075,0.00,VWS V14.01,2013-09-01 23:54:00,
2013-09-01 19:59:00,81.8,76.8,29.80,NE,44,0.0,0.0,85,0.00,,BKN075,0.00,VWS V14.01,2013-09-01 23:59:00,
2013-09-01 20:00:00,81.7,76.8,29.80,NE,44,0.0,0.0,85,0.00,,,0.00,VWS V14.01,2013-09-02 00:00:00,
2013-09-01 20:04:00,81.5,76.9,29.80,NE,44,0.0,0.0,86,0.00,,CLR,0.00,VWS V14.01,2013-09-02 00:04:00,
2013-09-01 20:09:00,81.2,76.6,29.81,NE,44,0.0,0.0,86,0.00,,CLR,0.00,VWS V14.01,2013-09-02 00:09:00,
2013-09-01 20:14:00,81.1,76.5,29.81,NE,44,0.0,0.0,86,0.00,,CLR,0.00,VWS V14.01,2013-09-02 00:14:00,
2013-09-01 20:15:00,81.0,76.4,29.81,NE,44,0.0,0.0,86,0.00,,,0.00,VWS V14.01,2013-09-02 00:15:00,
2013-09-01 20:19:00,80.9,76.7,29.81,NE,44,0.0,0.0,87,0.00,,CLR,0.00,VWS V14.01,2013-09-02 00:19:00,
2013-09-01 20:24:00,80.7,76.5,29.81,NE,44,0.0,0.0,87,0.00,,CLR,0.00,VWS V14.01,2013-09-02 00:24:00,
2013-09-01 20:29:00,80.5,76.3,29.82,NE,44,0.0,0.0,87,0.00,,CLR,0.00,VWS V14.01,2013-09-02 00:29:00,
2013-09-01 20:30:00,80.5,76.3,29.82,NE,44,0.0,0.0,87,0.00,,,0.00,VWS V14.01,2013-09-02 00:30:00,
2013-09-01 20:34:00,80.4,76.2,29.82,NE,44,0.0,0.0,87,0.00,,CLR,0.00,VWS V14.01,2013-09-02 00:34:00,
2013-09-01 20:39:00,80.3,76.4,29.82,NE,44,0.0,0.0,88,0.00,,CLR,0.00,VWS V14.01,2013-09-02 00:39:00,
2013-09-01 20:44:00,80.3,76.4,29.82,NE,44,0.0,0.0,88,0.00,,CLR,0.00,VWS V14.01,2013-09-02 00:44:00,
2013-09-01 20:45:00,80.2,76.3,29.82,NE,44,0.0,0.0,88,0.00,,,0.00,VWS V14.01,2013-09-02 00:45:00,
2013-09-01 20:49:00,80.2,76.3,29.82,NE,44,0.0,0.0,88,0.00,,CLR,0.00,VWS V14.01,2013-09-02 00:49:00,
2013-09-01 20:54:00,80.1,76.2,29.82,NE,44,0.0,0.0,88,0.00,,CLR,0.00,VWS V14.01,2013-09-02 00:54:00,
2013-09-01 20:59:00,80.1,76.2,29.83,NE,44,0.0,0.0,88,0.00,,CLR,0.00,VWS V14.01,2013-09-02 00:59:00,
2013-09-01 21:00:00,80.1,76.6,29.83,NE,44,0.0,0.0,89,0.00,,,0.00,VWS V14.01,2013-09-02 01:00:00,
2013-09-01 21:04:00,80.0,76.5,29.82,NE,44,0.0,0.0,89,0.00,,CLR,0.00,VWS V14.01,2013-09-02 01:04:00,
2013-09-01 21:10:00,80.0,76.5,29.82,NE,44,0.0,0.0,89,0.00,,CLR,0.00,VWS V14.01,2013-09-02 01:10:00,
2013-09-01 21:15:00,79.9,76.4,29.82,NE,44,0.0,0.0,89,0.00,,CLR,0.00,VWS V14.01,2013-09-02 01:15:00,
2013-09-01 21:20:00,79.8,76.3,29.82,NE,44,0.0,0.0,89,0.00,,CLR,0.00,VWS V14.01,2013-09-02 01:20:00,
2013-09-01 21:25:00,79.7,76.5,29.83,NE,44,0.0,0.0,90,0.00,,CLR,0.00,VWS V14.01,2013-09-02 01:25:00,
2013-09-01 21:30:00,79.7,76.5,29.83,NE,44,0.0,0.0,90,0.00,,CLR,0.00,VWS V14.01,2013-09-02 01:30:00,
2013-09-01 21:35:00,79.8,76.9,29.84,NE,44,0.0,0.0,91,0.00,,CLR,0.00,VWS V14.01,2013-09-02 01:35:00,
2013-09-01 21:40:00,79.8,76.9,29.84,NE,44,0.0,0.0,91,0.00,,CLR,0.00,VWS V14.01,2013-09-02 01:40:00,
2013-09-01 21:45:00,79.8,76.9,29.85,NE,44,0.0,0.0,91,0.00,,CLR,0.00,VWS V14.01,2013-09-02 01:45:00,
2013-09-01 21:50:00,79.9,77.0,29.85,NE,44,0.0,0.0,91,0.00,,CLR,0.00,VWS V14.01,2013-09-02 01:50:00,
2013-09-01 21:55:00,79.8,76.9,29.85,NE,44,0.0,0.0,91,0.00,,CLR,0.00,VWS V14.01,2013-09-02 01:55:00,
2013-09-01 22:00:00,79.8,77.3,29.85,NE,44,0.0,0.0,92,0.00,,CLR,0.00,VWS V14.01,2013-09-02 02:00:00,
2013-09-01 22:05:00,79.7,77.2,29.85,NE,44,0.0,0.0,92,0.00,,CLR,0.00,VWS V14.01,2013-09-02 02:05:00,
2013-09-01 22:10:00,79.7,77.2,29.85,NE,44,0.0,0.0,92,0.00,,CLR,0.00,VWS V14.01,2013-09-02 02:10:00,
2013-09-01 22:15:00,79.6,77.1,29.85,NE,44,0.0,0.0,92,0.00,,CLR,0.00,VWS V14.01,2013-09-02 02:15:00,
2013-09-01 22:20:00,79.6,77.4,29.85,NE,44,0.0,0.0,93,0.00,,CLR,0.00,VWS V14.01,2013-09-02 02:20:00,
2013-09-01 22:25:00,79.5,77.3,29.85,NE,44,0.0,0.0,93,0.00,,CLR,0.00,VWS V14.01,2013-09-02 02:25:00,
2013-09-01 22:30:00,79.4,77.2,29.85,NE,44,0.0,0.0,93,0.00,,CLR,0.00,VWS V14.01,2013-09-02 02:30:00,
2013-09-01 22:35:00,79.4,77.2,29.85,NE,44,0.0,0.0,93,0.00,,CLR,0.00,VWS V14.01,2013-09-02 02:35:00,
2013-09-01 22:40:00,79.3,77.1,29.85,NE,44,0.0,0.0,93,0.00,,CLR,0.00,VWS V14.01,2013-09-02 02:40:00,
2013-09-01 22:45:00,79.3,77.1,29.85,NE,44,0.0,0.0,93,0.00,,CLR,0.00,VWS V14.01,2013-09-02 02:45:00,
2013-09-01 22:50:00,79.2,77.0,29.84,NE,44,0.0,0.0,93,0.00,,CLR,0.00,VWS V14.01,2013-09-02 02:50:00,
2013-09-01 22:55:00,79.1,76.9,29.84,NE,44,0.0,0.0,93,0.00,,CLR,0.00,VWS V14.01,2013-09-02 02:55:00,
2013-09-01 23:00:00,79.1,77.2,29.84,NE,44,0.0,0.0,94,0.00,,CLR,0.00,VWS V14.01,2013-09-02 03:00:00,
2013-09-01 23:05:00,79.0,77.1,29.85,NE,44,0.0,0.0,94,0.00,,CLR,0.00,VWS V14.01,2013-09-02 03:05:00,
2013-09-01 23:10:00,78.9,77.0,29.85,NE,44,0.0,0.0,94,0.00,,CLR,0.00,VWS V14.01,2013-09-02 03:10:00,
2013-09-01 23:15:00,78.8,76.9,29.85,NE,44,0.0,0.0,94,0.00,,CLR,0.00,VWS V14.01,2013-09-02 03:15:00,
2013-09-01 23:20:00,78.7,76.8,29.84,NE,44,0.0,0.0,94,0.00,,CLR,0.00,VWS V14.01,2013-09-02 03:20:00,
2013-09-01 23:25:00,78.7,76.8,29.84,NE,44,0.0,0.0,94,0.00,,CLR,0.00,VWS V14.01,2013-09-02 03:25:00,
2013-09-01 23:30:00,78.7,76.8,29.84,NE,44,0.0,0.0,94,0.00,,,0.00,VWS V14.01,2013-09-02 03:30:00,
2013-09-01 23:31:00,78.7,76.8,29.84,NE,44,0.0,0.0,94,0.00,,CLR,0.00,VWS V14.01,2013-09-02 03:31:00,
2013-09-01 23:36:00,78.7,76.8,29.84,NE,44,0.0,1.0,94,0.00,,CLR,0.00,VWS V14.01,2013-09-02 03:36:00,
2013-09-01 23:41:00,78.6,76.7,29.84,NE,44,0.0,1.0,94,0.00,,CLR,0.00,VWS V14.01,2013-09-02 03:41:00,
2013-09-01 23:45:00,78.5,76.9,29.85,NE,44,0.0,1.0,95,0.00,,,0.00,VWS V14.01,2013-09-02 03:45:00,
2013-09-01 23:46:00,78.6,77.1,29.85,NE,44,0.0,0.0,95,0.00,,CLR,0.00,VWS V14.01,2013-09-02 03:46:00,
2013-09-01 23:51:00,78.5,76.9,29.85,NE,44,0.0,0.0,95,0.00,,CLR,0.00,VWS V14.01,2013-09-02 03:51:00,
2013-09-01 23:56:00,78.4,76.8,29.85,NE,44,0.0,0.0,95,0.00,,CLR,0.00,VWS V14.01,2013-09-02 03:56:00,